Find Starlink 36197

NORAD ID: 67205 Int'l Des: 2025-304 Owner: SPXS Country: US Constellation: starlink operational
LEOCIRCULAR

現在のビュー

3D地球を読み込み中...

Starlink 36197について

説明を読み込み中...

次回通過

Passes for default location (London). Set your location on the main map for personalized predictions.

高度履歴

Loading altitude history...

軌道要素

1 67205U 25304P 26146.56720169 .00002428 00000-0 21121-3 0 9995
2 67205 70.0015 337.9530 0002637 264.8069 95.2789 14.98337479 25527
Epoch: May 26, 2026 • Age: 9 hours

現在のステータス

高度 583.4 km
速度 7.57 km/s
衛星直下点 60.75°N, 99.51°W
打ち上げ日 Dec 17, 2025
運用期間 0.4 years
タイプ internet

技術仕様

分類 Payload
質量 575.00 kg
乾燥質量 530.00 kg
総質量 575.00 kg
長さ 0.30 m
直径 4.10 m
スパン 29.00 m
形状 Box + pan
製造者 SPXS
バスタイプ Starlink V2MO
フェーズステータス In Orbit
所有者/国 SPXS/US

Most Searched